Location: Cactus School
(34.5700°N, 118.0931°W)
Time: 10:03:04
(UTC-07:00)

S-56A Canister/Altair - Pass Details

Date: 13 April 2024
Orbit: 638 x 2488 km, 38.9° (Epoch: 29 May)

Event Time Altitude Azimuth Distance (km) Brightness Sun altitude
Rises 23:37:57 0° 288° (WNW) 4,595 12.0 -42.4°
Reaches altitude 10° 23:40:37 10° 289° (WNW) 3,830 11.4 -42.6°
Enters shadow 23:49:36 73° 291° (WNW) 2,093 9.5 -43.4°
Maximum altitude 23:51:17 90° 11° (NNE) 2,089 - -43.5°
Drops below altitude 10° 00:06:00 10° 113° (ESE) 5,104 - -44.5°
Sets 00:10:07 0° 113° (ESE) 6,155 - -44.7°
